Flag for Madagascar Weather past 2 weeks in Antananarivo, Madagascar

Now
73 °F

Scattered clouds.


Feels Like: 77 °F
Forecast: 54 / 69 °F
Wind: 7 mph from Northwest

Location: Antananarivo / Ivato

Current Time: Jul 7, 2015 at 4:25:46 PM

Latest Report: Jul 7, 2015 at 4:00 PM


Visibility: N/A

Pressure: 30.15 "Hg (25.99 "Hg at 1287m altitude)

Humidity: 53%

Dew point: 55 °F

Location of AntananarivoLocation

Historic Weather in Antananarivo — Graph

°F

Antananarivo temperature yesterday

Maximum temperature yesterday: 75 °F (at 2:00 PM)
Minimum temperature yesterday: 55 °F (at 12:00 AM)
Average temperature yesterday: 62 °F

Past Weeks' High & Low Weather Summary

 TemperatureHumidityPressure
High77 °F (Jul 5, 3:00 PM)100% (Jun 22, 5:00 PM)30.39 "Hg (Jun 22, 5:00 PM)
Low48 °F (Jun 26, 6:00 AM)44% (Jun 30, 2:30 PM)30.15 "Hg (Jul 7, 3:00 PM)
Average61 °F90%30.31 "Hg
* Reported Jun 22 3:00 PM — Jul 7 3:00 PM, Antananarivo, Weather by CustomWeather, © 2015

Note: Actual official high and low records may vary slightly from our data, if they occured in-between our weather recording intervals... More about our weather records

Advertising

Antananarivo weather history for previous 24 hours

 ConditionsComfort  
Time TempWeatherWind HumidityBarometerVisibility
3:00 PM
Tue, Jul 7
75 °FScattered clouds.2 mph54%30.15 "HgN/A
2:30 PM75 °FScattered clouds.2 mph57%30.18 "HgN/A
2:00 PM75 °FMild.N/A57%30.18 "HgN/A
1:30 PM73 °FScattered clouds.No wind57%30.18 "HgN/A
1:00 PM72 °FPartly sunny.6 mph69%30.21 "HgN/A
12:30 PM70 °FPartly sunny.2 mph69%30.21 "HgN/A
12:00 PM70 °FPartly sunny.1 mph64%30.21 "HgN/A
11:30 AM70 °FScattered clouds.1 mph73%30.24 "HgN/A
11:00 AM70 °FScattered clouds.No wind73%30.24 "HgN/A
10:30 AM68 °FScattered clouds.No wind83%30.24 "Hg5 mi
10:00 AM64 °FPassing clouds.No wind94%30.27 "HgN/A
9:30 AM63 °FScattered clouds.No wind100%30.27 "Hg6 mi
9:00 AM59 °FFog.No wind100%30.27 "Hg2 mi
8:03 AM55 °FFog.1 mph100%30.27 "Hg1 mi
7:30 AM54 °FFog.No wind100%30.27 "Hg0 mi
7:00 AM54 °FFog.No wind100%30.27 "Hg0 mi
6:30 AM54 °FFog.No wind100%30.27 "Hg1 mi
6:00 AM54 °FPassing clouds.No wind100%30.24 "HgN/A
5:30 AM50 °FPartly cloudy.No wind100%30.24 "HgN/A
5:00 AM50 °FPartly cloudy.No wind100%30.24 "HgN/A
4:30 AM50 °FPassing clouds.No wind100%30.24 "HgN/A
4:00 AM52 °FClear.No wind100%30.24 "Hg10 mi
3:30 AM50 °FClear.No wind100%30.24 "Hg10 mi
3:00 AM50 °FClear.5 mph100%30.24 "Hg10 mi
2:30 AM50 °FClear.5 mph100%30.24 "Hg10 mi
2:00 AM52 °FClear.2 mph100%30.24 "Hg10 mi
1:30 AM52 °FClear.2 mph100%30.24 "Hg10 mi
1:00 AM52 °FClear.No wind100%30.24 "Hg10 mi
12:00 AM54 °FClear.3 mph100%30.27 "Hg10 mi
11:30 PM
Mon, Jul 6
55 °FClear.No wind100%30.27 "Hg10 mi
11:00 PM55 °FClear.1 mph100%30.27 "Hg10 mi
10:30 PM57 °FClear.No wind100%30.30 "Hg10 mi
10:00 PM57 °FClear.No wind100%30.30 "Hg10 mi
9:30 PM57 °FClear.No wind94%30.30 "Hg10 mi
9:00 PM59 °FClear.No wind88%30.30 "Hg10 mi
8:30 PM61 °FClear.No wind88%30.27 "Hg10 mi
8:00 PM61 °FClear.No wind88%30.27 "Hg10 mi
7:30 PM61 °FClear.No wind88%30.27 "Hg10 mi
7:00 PM61 °FPassing clouds.No wind88%30.27 "HgN/A
6:30 PM63 °FPassing clouds.No wind77%30.27 "HgN/A
6:00 PM64 °FPassing clouds.No wind73%30.27 "HgN/A
5:30 PM68 °FPassing clouds.No wind69%30.27 "HgN/A
5:00 PM73 °FPassing clouds.No wind61%30.27 "HgN/A
4:30 PM75 °FPassing clouds.No wind57%30.27 "HgN/A
4:00 PM73 °FPassing clouds.No wind57%30.27 "HgN/A
Weather by CustomWeather, © 2015

See weather overviewHow to use our weather pages